TimeCET,TemperatureF,Dew PointF,Humidity,Sea Level PressureIn,VisibilityMPH,Wind Direction,Wind SpeedMPH,Gust SpeedMPH,PrecipitationIn,Events,Conditions,WindDirDegrees,DateUTC
12:25 AM,39.2,35.6,87,30.15,3.7,South,5.8,-,N/A,,Overcast,170,2012-11-15 23:25:00
12:55 AM,39.2,35.6,87,30.15,3.1,SSE,4.6,-,N/A,,Overcast,160,2012-11-15 23:55:00
1:00 AM,40,35,78,30.15,3,SSE,4.5,,,,Mist,160,2012-11-16 00:00:00
1:25 AM,39.2,35.6,87,30.12,3.7,SSW,3.5,-,N/A,,Overcast,200,2012-11-16 00:25:00
1:55 AM,39.2,35.6,87,30.12,4.3,South,3.5,-,N/A,,Overcast,190,2012-11-16 00:55:00
2:12 AM,39.2,33.8,81,30.12,4.3,SW,5.8,-,N/A,,Overcast,220,2012-11-16 01:12:00
2:21 AM,39.2,33.8,81,30.12,5.0,South,4.6,-,N/A,,Overcast,180,2012-11-16 01:21:00
2:25 AM,39.2,33.8,81,30.12,5.0,South,3.5,-,N/A,,Overcast,180,2012-11-16 01:25:00
2:32 AM,39.2,35.6,87,30.12,5.0,South,3.5,-,N/A,,Overcast,180,2012-11-16 01:32:00
2:42 AM,39.2,33.8,81,30.12,5.0,SSE,3.5,-,N/A,,Overcast,150,2012-11-16 01:42:00
2:49 AM,39.2,33.8,81,30.12,5.6,SE,3.5,-,N/A,,Overcast,140,2012-11-16 01:49:00
2:55 AM,39.2,33.8,81,30.12,5.6,SSE,2.3,-,N/A,,Overcast,150,2012-11-16 01:55:00
3:00 AM,39.2,33.8,81,30.12,5.0,SSE,2.3,-,N/A,,Overcast,160,2012-11-16 02:00:00
3:25 AM,39.2,33.8,81,30.12,4.3,SSE,3.5,-,N/A,,Overcast,150,2012-11-16 02:25:00
3:30 AM,39.2,33.8,81,30.12,5.0,SE,2.3,-,N/A,,Overcast,130,2012-11-16 02:30:00
3:34 AM,39.2,33.8,81,30.12,4.3,SE,2.3,-,N/A,,Overcast,130,2012-11-16 02:34:00
3:36 AM,39.2,33.8,81,30.12,4.3,SSE,1.2,-,N/A,,Overcast,150,2012-11-16 02:36:00
3:55 AM,39.2,33.8,81,30.12,4.3,SSW,1.2,-,N/A,,Overcast,200,2012-11-16 02:55:00
4:00 AM,39,34,75,30.13,4,Calm,Calm,,,,Mist,,2012-11-16 03:00:00
4:25 AM,39.2,35.6,87,30.12,4.3,SSE,2.3,-,N/A,,Overcast,150,2012-11-16 03:25:00
4:55 AM,39.2,33.8,81,30.09,3.7,SSE,4.6,-,N/A,,Overcast,160,2012-11-16 03:55:00
5:25 AM,39.2,35.6,87,30.09,3.7,South,3.5,-,N/A,,Overcast,170,2012-11-16 04:25:00
5:55 AM,39.2,35.6,87,30.09,3.7,South,3.5,-,N/A,,Overcast,180,2012-11-16 04:55:00
6:08 AM,39.2,35.6,87,30.09,3.7,SSE,4.6,-,N/A,,Overcast,150,2012-11-16 05:08:00
6:12 AM,39.2,35.6,87,30.09,3.7,SSE,4.6,-,N/A,,Overcast,150,2012-11-16 05:12:00
6:13 AM,39.2,35.6,87,30.09,3.7,SSE,4.6,-,N/A,,Overcast,160,2012-11-16 05:13:00
6:19 AM,39.2,35.6,87,30.09,3.7,SSE,4.6,-,N/A,,Overcast,160,2012-11-16 05:19:00
6:25 AM,39.2,35.6,87,30.09,3.7,South,4.6,-,N/A,,Overcast,170,2012-11-16 05:25:00
6:55 AM,39.2,35.6,87,30.09,3.7,South,4.6,-,N/A,,Overcast,180,2012-11-16 05:55:00
7:00 AM,40,35,76,30.11,4,South,4.5,,,,Mist,170,2012-11-16 06:00:00
7:05 AM,39.2,35.6,87,30.09,3.7,South,4.6,-,N/A,,Overcast,170,2012-11-16 06:05:00
7:07 AM,39.2,35.6,87,30.09,3.7,South,4.6,-,N/A,,Overcast,170,2012-11-16 06:07:00
7:13 AM,39.2,35.6,87,30.09,3.7,South,4.6,-,N/A,,Overcast,180,2012-11-16 06:13:00
7:25 AM,39.2,35.6,87,30.09,3.7,South,5.8,-,N/A,,Overcast,170,2012-11-16 06:25:00
7:34 AM,39.2,35.6,87,30.09,3.7,South,3.5,-,N/A,,Overcast,170,2012-11-16 06:34:00
7:55 AM,39.2,35.6,87,30.09,3.7,South,3.5,-,N/A,,Overcast,190,2012-11-16 06:55:00
8:25 AM,39.2,35.6,87,30.09,3.7,South,3.5,-,N/A,,Overcast,180,2012-11-16 07:25:00
8:31 AM,39.2,35.6,87,30.09,3.7,South,4.6,-,N/A,,Overcast,180,2012-11-16 07:31:00
8:55 AM,41.0,35.6,81,30.09,3.7,South,4.6,-,N/A,,Overcast,180,2012-11-16 07:55:00
9:00 AM,41.0,35.6,81,30.09,3.7,South,4.6,-,N/A,,Overcast,170,2012-11-16 08:00:00
9:01 AM,41.0,35.6,81,30.09,3.7,South,3.5,-,N/A,,Overcast,170,2012-11-16 08:01:00
9:25 AM,41.0,35.6,81,30.09,3.7,SSE,6.9,-,N/A,,Overcast,160,2012-11-16 08:25:00
9:55 AM,41.0,35.6,81,30.09,3.7,SSE,5.8,-,N/A,,Overcast,160,2012-11-16 08:55:00
9:56 AM,41.0,35.6,81,30.09,3.7,South,5.8,-,N/A,,Overcast,170,2012-11-16 08:56:00
10:00 AM,41,35,73,30.11,4,South,6.7,,,,Mist,180,2012-11-16 09:00:00
10:15 AM,41.0,35.6,81,30.09,3.7,South,8.1,-,N/A,,Overcast,180,2012-11-16 09:15:00
10:19 AM,41.0,35.6,81,30.09,3.7,South,6.9,-,N/A,,Overcast,170,2012-11-16 09:19:00
10:25 AM,41.0,35.6,81,30.09,3.7,SSE,5.8,-,N/A,,Overcast,160,2012-11-16 09:25:00
10:29 AM,41.0,35.6,81,30.09,3.7,SSE,6.9,-,N/A,,Overcast,160,2012-11-16 09:29:00
10:36 AM,41.0,35.6,81,30.09,3.7,SSE,5.8,-,N/A,,Overcast,160,2012-11-16 09:36:00
10:37 AM,41.0,35.6,81,30.09,3.7,SSE,5.8,-,N/A,,Overcast,160,2012-11-16 09:37:00
10:47 AM,41.0,35.6,81,30.09,3.7,SSW,5.8,-,N/A,,Overcast,200,2012-11-16 09:47:00
10:55 AM,41.0,35.6,81,30.09,3.7,South,5.8,-,N/A,,Overcast,190,2012-11-16 09:55:00
11:00 AM,41.0,35.6,81,30.09,3.7,South,5.8,-,N/A,,Overcast,170,2012-11-16 10:00:00
11:04 AM,41.0,35.6,81,30.09,3.7,South,5.8,-,N/A,,Overcast,170,2012-11-16 10:04:00
11:25 AM,41.0,35.6,81,30.09,3.7,SSE,6.9,-,N/A,,Overcast,160,2012-11-16 10:25:00
11:55 AM,41.0,35.6,81,30.06,3.7,South,6.9,-,N/A,,Overcast,170,2012-11-16 10:55:00
12:13 PM,41.0,35.6,81,30.06,3.7,South,6.9,-,N/A,,Overcast,170,2012-11-16 11:13:00
12:25 PM,41.0,35.6,81,30.06,3.7,South,5.8,-,N/A,,Overcast,180,2012-11-16 11:25:00
12:55 PM,41.0,35.6,81,30.06,3.7,SSE,6.9,-,N/A,,Overcast,160,2012-11-16 11:55:00
1:00 PM,41,36,76,30.07,4,SSE,4.5,,,,Mist,150,2012-11-16 12:00:00
1:25 PM,41.0,35.6,81,30.06,3.1,SSE,5.8,-,N/A,,Overcast,160,2012-11-16 12:25:00
1:41 PM,41.0,35.6,81,30.04,3.1,SSE,4.6,-,N/A,,Overcast,150,2012-11-16 12:41:00
1:55 PM,41.0,35.6,81,30.04,3.1,SSE,5.8,-,N/A,,Overcast,150,2012-11-16 12:55:00
2:01 PM,41.0,35.6,81,30.04,3.1,SSE,6.9,-,N/A,,Mostly Cloudy,150,2012-11-16 13:01:00
2:04 PM,41.0,35.6,81,30.04,3.1,SSE,6.9,-,N/A,Thunderstorm,Mostly Cloudy,150,2012-11-16 13:04:00
2:25 PM,41.0,35.6,81,30.04,3.1,SSE,6.9,-,N/A,,Overcast,160,2012-11-16 13:25:00
2:45 PM,41.0,35.6,81,30.04,3.1,SSE,5.8,-,N/A,,Mostly Cloudy,160,2012-11-16 13:45:00
2:55 PM,41.0,35.6,81,30.04,3.1,South,5.8,-,N/A,,Overcast,170,2012-11-16 13:55:00
3:25 PM,41.0,35.6,81,30.04,3.1,South,4.6,-,N/A,,Mostly Cloudy,170,2012-11-16 14:25:00
3:55 PM,41.0,35.6,81,30.01,3.1,SSE,5.8,-,N/A,,Partly Cloudy,150,2012-11-16 14:55:00
3:59 PM,41.0,35.6,81,30.01,3.1,SSE,3.5,-,N/A,,Scattered Clouds,150,2012-11-16 14:59:00
4:00 PM,41,36,75,30.03,3,SSE,2.2,,,,Mist,150,2012-11-16 15:00:00
4:03 PM,41.0,35.6,81,30.01,3.1,SSE,3.5,-,N/A,,Mostly Cloudy,150,2012-11-16 15:03:00
4:07 PM,41.0,35.6,81,30.01,-9999.0,SE,3.5,-,N/A,,Overcast,140,2012-11-16 15:07:00
4:11 PM,41.0,35.6,81,30.01,-9999.0,SE,4.6,-,N/A,,Mostly Cloudy,140,2012-11-16 15:11:00
4:25 PM,39.2,35.6,87,30.01,-9999.0,SSE,4.6,-,N/A,,Mist,150,2012-11-16 15:25:00
4:55 PM,39.2,35.6,87,30.01,-9999.0,ESE,3.5,-,N/A,,Mist,120,2012-11-16 15:55:00
5:25 PM,39.2,35.6,87,30.01,-9999.0,SE,3.5,-,N/A,,Mist,130,2012-11-16 16:25:00
5:36 PM,37.4,33.8,87,30.01,2.2,SSE,2.3,-,N/A,,Mist,160,2012-11-16 16:36:00
5:40 PM,37.4,33.8,87,30.01,-9999.0,SSE,2.3,-,N/A,,Partly Cloudy,160,2012-11-16 16:40:00
5:42 PM,37.4,33.8,87,30.01,-9999.0,SSE,3.5,-,N/A,,Partly Cloudy,150,2012-11-16 16:42:00
5:48 PM,37.4,33.8,87,30.01,-9999.0,SSE,3.5,-,N/A,,Partly Cloudy,150,2012-11-16 16:48:00
5:55 PM,37.4,33.8,87,30.01,-9999.0,SSE,3.5,-,N/A,,Mist,160,2012-11-16 16:55:00
5:59 PM,37.4,33.8,87,30.01,-9999.0,SE,3.5,-,N/A,,Mist,140,2012-11-16 16:59:00
6:12 PM,37.4,33.8,87,30.01,-9999.0,SSE,3.5,-,N/A,,Mist,150,2012-11-16 17:12:00
6:25 PM,37.4,35.6,93,30.01,-9999.0,SE,2.3,-,N/A,,Mist,140,2012-11-16 17:25:00
6:31 PM,37.4,35.6,93,30.01,2.2,SE,2.3,-,N/A,,Mist,140,2012-11-16 17:31:00
6:35 PM,37.4,35.6,93,30.01,-9999.0,SE,2.3,-,N/A,,Mist,140,2012-11-16 17:35:00
6:36 PM,37.4,33.8,87,30.01,-9999.0,SE,3.5,-,N/A,,Mist,130,2012-11-16 17:36:00
6:43 PM,37.4,33.8,87,30.01,-9999.0,ESE,3.5,-,N/A,,Mist,120,2012-11-16 17:43:00
6:55 PM,37.4,35.6,93,30.01,-9999.0,SE,2.3,-,N/A,,Mist,130,2012-11-16 17:55:00
7:00 PM,37,35,87,30.01,3,SE,2.2,,,,Mist,130,2012-11-16 18:00:00
7:17 PM,35.6,33.8,93,30.01,2.8,SE,3.5,-,N/A,,Scattered Clouds,130,2012-11-16 18:17:00
7:25 PM,35.6,33.8,93,30.01,2.8,SE,3.5,-,N/A,,Partly Cloudy,130,2012-11-16 18:25:00
8:01 PM,37.4,33.8,87,29.98,-9999.0,ESE,3.5,-,N/A,,Unknown,120,2012-11-16 19:01:00
8:05 PM,37.4,33.8,87,29.98,-9999.0,ESE,3.5,-,N/A,,Mist,120,2012-11-16 19:05:00
8:11 PM,35.6,33.8,93,29.98,-9999.0,ESE,3.5,-,N/A,,Mist,120,2012-11-16 19:11:00
8:12 PM,35.6,33.8,93,29.98,-9999.0,ESE,4.6,-,N/A,,Mist,120,2012-11-16 19:12:00
8:25 PM,37.4,35.6,93,29.98,2.5,SE,4.6,-,N/A,,Mist,130,2012-11-16 19:25:00
8:55 PM,37.4,33.8,87,29.98,-9999.0,SSE,2.3,-,N/A,,Partly Cloudy,150,2012-11-16 19:55:00
8:59 PM,35.6,33.8,93,29.98,-9999.0,SE,3.5,-,N/A,,Partly Cloudy,140,2012-11-16 19:59:00
9:11 PM,37.4,35.6,93,29.98,-9999.0,ESE,4.6,-,N/A,,Partly Cloudy,120,2012-11-16 20:11:00
9:25 PM,37.4,35.6,93,29.95,2.5,ESE,3.5,-,N/A,,Mist,120,2012-11-16 20:25:00
9:55 PM,35.6,33.8,93,29.95,-9999.0,SE,2.3,-,N/A,,Mist,140,2012-11-16 20:55:00
10:00 PM,36,34,89,29.97,2,SE,2.2,,,,Mist,130,2012-11-16 21:00:00
10:07 PM,35.6,33.8,93,29.95,-9999.0,SE,2.3,-,N/A,,Mist,130,2012-11-16 21:07:00
10:09 PM,35.6,33.8,93,29.95,-9999.0,SE,3.5,-,N/A,,Mist,130,2012-11-16 21:09:00
10:12 PM,35.6,33.8,93,29.95,-9999.0,SE,3.5,-,N/A,,Mist,130,2012-11-16 21:12:00
10:25 PM,35.6,33.8,93,29.95,-9999.0,SE,4.6,-,N/A,,Mist,140,2012-11-16 21:25:00
10:36 PM,35.6,33.8,93,29.95,-9999.0,SE,4.6,-,N/A,,Partly Cloudy,130,2012-11-16 21:36:00
10:42 PM,35.6,33.8,93,29.95,-9999.0,SE,4.6,-,N/A,,Partly Cloudy,140,2012-11-16 21:42:00
10:47 PM,35.6,33.8,93,29.95,-9999.0,SE,4.6,-,N/A,,Partly Cloudy,140,2012-11-16 21:47:00
10:55 PM,33.8,33.8,100,29.95,-9999.0,SE,4.6,-,N/A,,Partly Cloudy,140,2012-11-16 21:55:00
11:25 PM,35.6,33.8,93,29.95,-9999.0,SE,8.1,-,N/A,,Mist,140,2012-11-16 22:25:00
11:55 PM,35.6,33.8,93,29.92,-9999.0,SE,6.9,-,N/A,,Partly Cloudy,140,2012-11-16 22:55:00